Regional Weather Roundup
Issued by NWS

Home | Current Version | Previous Version | Text Only | Print | Product List | Glossary Off
Versions: 1 2 3 4 5 6 7 8 9 10 11 12 13 14 15 16 17 18 19 20 21 22 23 24 25 26 27

000
ASUS45 KBOU 182306
RWRCO

WEATHER ROUNDUP FOR COLORADO
NATIONAL WEATHER SERVICE DENVER/BOULDER CO
500 PM MDT FRI APR 18 2014

NOTE: "FAIR" INDICATES FEW OR NO CLOUDS BELOW 12000 FEET WITH NO
SIGNIFICANT WEATHER AND/OR OBSTRUCTIONS TO VISIBILITY.

COZ001>005-013-030-031-190000-
...NORTHWEST COLORADO...

CITY           SKY/WX    TMP DP  RH WIND       PRES   REMARKS
CRAIG          CLOUDY    69  23  17 SW20G33   29.93S
HAYDEN         CLOUDY    68  21  17 SW29G36   29.98R
MEEKER         PTSUNNY   69  20  15 SW24G36   29.96S
MOUNT WERNER   CLOUDY    50   5  16 W25G33    30.18S
STEAMBOAT SPGS CLOUDY    67  10  11 SW15G24   29.97R
WALDEN         PTSUNNY   59  19  21 SW18G31   30.02S
$$

COZ006>008-011-190000-
...WEST CENTRAL VALLEYS...

CITY           SKY/WX    TMP DP  RH WIND       PRES   REMARKS
GRAND JUNCTION CLOUDY    76  21  12 W17G26    29.89F
MONTROSE       CLOUDY    71  20  14 W9        29.97S
EAGLE          PTSUNNY   68  21  17 W16       29.98S
RIFLE          CLOUDY    73  23  15 W23G31    29.92S
DELTA          CLOUDY    76  19  11 W13       29.93S
NUCLA            N/A     72  19  14 SW15      30.00F
$$

COZ017>023-064>068-190000-
...SOUTHWEST COLORADO...

CITY           SKY/WX    TMP DP  RH WIND       PRES   REMARKS
DURANGO        PTSUNNY   72  14  11 SW13G23   30.01F
CORTEZ         PTSUNNY   72  22  15 S14G21    29.99F
PAGOSA SPRINGS PTSUNNY   66  12  12 W12G22    30.09F
TELLURIDE      CLOUDY    57  19  23 SW7       30.14F
WOLF CREEK PAS CLOUDY    41  18  38 SW15G33   30.31S
$$

COZ009-010-012-014-032>034-037-058>063-190000-
...CENTRAL COLORADO...

CITY           SKY/WX    TMP DP  RH WIND       PRES   REMARKS
ASPEN          CLOUDY    59  29  31 S17       30.07R
BUENA VISTA    PTSUNNY   65  17  15 S17G28    30.05S
COPPER MTN     CLOUDY    45  16  31 W12G18    30.28S
BERTHOUD PASS  FAIR      37  30  75 MISG      30.31R
COTTONWOOD PAS PTSUNNY   55  12  18 SW21G26   30.15F
GUNNISON       CLOUDY    61  23  23 N9G26     30.14R
KREMMLING      CLOUDY    64  16  15 W12G20    30.02S
LEADVILLE      CLOUDY    50  17  27 W12       30.16S
MONARCH PASS   CLOUDY    39  23  52 W26G40    30.38F
SALIDA         PTSUNNY   67  22  18 SW15      30.12S
SUNLIGHT       CLOUDY    46  23  39 CALM      30.22S
WILKERSON PASS PTSUNNY   50  19  29 SW9G16    30.26S
$$

COZ069>075-190000-
...SAN LUIS VALLEY/SANGRE DE CRISTO MOUNTAINS...

CITY           SKY/WX    TMP DP  RH WIND       PRES   REMARKS
ALAMOSA        CLOUDY    65  22  19 W12       30.06F
LA VETA PASS   PTSUNNY   50  21  32 SW12G26   30.20F
SAGUACHE       CLOUDY    64  16  15 W17       30.07F
$$

COZ035-036-038>040-190000-
...NORTHERN COLORADO FRONT RANGE...

CITY           SKY/WX    TMP DP  RH WIND       PRES   REMARKS
DENVER INTL AP PTSUNNY   78  25  14 SE12      29.83F
DMNS CITY PARK   N/A     76  23  14 N8G16     29.83S
AURORA         PTSUNNY   75  25  15 CALM      29.84F
FRONT RANGE AP NOT AVBL
ERIE MUNI ARPT PTSUNNY   75  24  15 NW6       29.84F
BOULDER MUN AP PTSUNNY   73  30  20 E6        29.85F
CENTENNIAL     PTSUNNY   76  23  14 W8        29.85F
BROOMFIELD     PTSUNNY   73  25  16 N15       29.87F
FORT COLLINS   PTSUNNY   73  36  25 S7        29.84S
LONGMONT       PTSUNNY   78  32  18 E5        29.85F
$$

COZ041-046-047-076>085-087-088-190000-
...PIKES PEAK/PALMER DIVIDE AND SOUTHERN FOOTHILLS...

CITY           SKY/WX    TMP DP  RH WIND       PRES   REMARKS
COLO. SPRINGS  PTSUNNY   74  23  15 S16G28    29.94F
A. F. ACADEMY  MOSUNNY   69  24  18 SE21G29   29.94F
ELLICOTT       NOT AVBL
FALCON         MOSUNNY   71  23  16 S21G28    29.99F
FORT CARSON    MOSUNNY   75  26  16 S18G25    29.91F
LIMON          MOSUNNY   74  24  15 S21G30    29.91F
MONUMENT HILL  MOSUNNY   64  27  24 S23       29.96S
TRINIDAD       PTSUNNY   75  27  17 SW18      29.94F
$$

COZ042>045-048>051-090-091-190000-
...NORTHEAST COLORADO...

CITY           SKY/WX    TMP DP  RH WIND       PRES   REMARKS
GREELEY ARPT   PTSUNNY   75  30  19 S7        29.84S
AKRON          SUNNY     77  24  14 S18G25    29.87F
BURLINGTON     SUNNY     76  33  21 S22       29.91F
WRAY           MOSUNNY   80  33  17 S18G24    29.86S
STERLING       SUNNY     82  34  17 S15G23    29.81F
HOLYOKE        MOSUNNY   81  36  19 S22G28    29.85S
FORT MORGAN    SUNNY     79  23  12 SE10      29.84F
$$

COZ086-089-092>099-190000-
...SOUTHEAST COLORADO...

CITY           SKY/WX    TMP DP  RH WIND       PRES   REMARKS
PUEBLO         MOSUNNY   81  22  11 S18       29.85F
LA JUNTA       SUNNY     81  23  11 S13G21    29.86F
LAMAR          MOSUNNY   81  34  18 S21G29    29.85F
SPRINGFIELD      N/A     73  37  27 S24G32    29.94F
$$



USA.gov is the U.S. government's official web portal to all federal, state and local government web resources and services.